Weather in Santa Fe

Argentina     31°37′08″S   60°42′02″W
temp.,
°C
wind,
m/s
gust,
m/s
humid.,
%
clouds,
%
prec.,
mm/h
press.,
hPa
HPBL,
m
6 march, sat
sat600:00+21ese34530 0.0 1012113
03:00+18e24630 0.0 101181
06:00+16ene23670 0.0 101157
09:00+20ene34550 0.0 1013349
12:00+27ese22320 0.0 10131152
15:00+30ese23230 0.0 10101470
18:00+30e34220 0.0 10091439
21:00+23ene35380 0.0 101096
7 march, sun
sun700:00+20ne34460 0.0 101267
03:00+19ne23500 0.0 101152
06:00+17ne22570 0.0 101139
09:00+22nne23440 0.0 1013290
12:00+29nne32260 0.0 10121022
15:00+33ne32180 0.0 10091565
18:00+33ene32200 0.0 10071421
21:00+24ne34350 0.0 100851
8 march, mon
mon800:00+22nne33380 0.0 101045
03:00+20ne35470 0.0 100995
06:00+19nne23540 0.0 101046
09:00+24n23445 0.0 1013284
12:00+32sse222747 0.0 10141117
15:00+35s452024 0.0 10112536
18:00+34sse45200 0.0 10102579
21:00+26sse23335 0.0 101148
9 march, tue
tue900:00+24ese512490 0.0 1013358
03:00+20ese37670 0.0 1013177
06:00+19e24730 0.0 101397
09:00+24ene46560 0.0 1014366
12:00+31ene33330 0.0 10141527
15:00+34se32210 0.0 10112540
18:00+33e13220 0.0 10082119
21:00+26e35350 0.0 1009123
10 march, wed
wed1000:00+24e512340 0.0 1010306
03:00+21ene36480 0.0 1010145
06:00+20ene49670 0.0 1010236
09:00+23ene48630 0.0 1011397
12:00+30ene33340 0.0 10101398
15:00+34e44210 0.0 10072019
18:00+33ene352222 0.0 10041957
21:00+26e353831 0.0 1005143